Weather History for Lyndonville, VT

Change the Weather History Date:

Wednesday, September 4, 2013

  Actual Average (K1V4) Record (K1V4)
Temperature  
Mean Temperature 64 °F 64 °F  
Max Temperature 71 °F 75 °F 91 °F (1999)
Min Temperature 57 °F 54 °F 34 °F (1946)
Degree Days  
Heating Degree Days 1 3  
Month to date heating degree days 11  
Since 1 July heating degree days 61  
Cooling Degree Days 0 2  
Month to date cooling degree days 9  
Year to date cooling degree days 407  
Growing Degree Days 14 (Base 50)    
Moisture  
Dew Point 54 °F    
Average Humidity 74    
Maximum Humidity 90    
Minimum Humidity 45    
Precipitation  
Precipitation 0.00 in 0.11 in 1.10 in (1907)
Month to date precipitation 0.41  
Year to date precipitation 26.17  
Sea Level Pressure  
Sea Level Pressure 29.89 in    
Wind  
Wind Speed 3 mph (West)    
Max Wind Speed 13 mph    
Max Gust Speed 18 mph    
Visibility 10 miles    
Events Rain    
T = Trace of Precipitation, MM = Missing Value Source: NWS Daily Summary

Daily Weather History Graph

Daily Weather History Graph

Search for Another Location

Airport:

Trip Planner

Search our weather history database for the weather conditions in past years. The results will help you decide how hot, cold, wet, or windy it might be!

Date:

Astronomy

Sep. 04, 2013 Rise Set
Actual Time 6:14 AM EDT 7:18 PM EDT
Civil Twilight 5:44 AM EDT 7:48 PM EDT
Nautical Twilight 5:08 AM EDT 8:24 PM EDT
Astronomical Twilight 4:31 AM EDT 9:01 PM EDT
Moon 5:23 AM EDT (9/4) 6:35 PM EDT (9/4)
Length of Visible Light 14h 04m
Length of Day
13h 04m
Waning Crescent, 1% of the Moon is Illuminated
Sep 4
Waning Crescent
Sep 5
New
Sep 12
First Quarter
Sep 19
Full
Sep 26
Last Quarter

Hourly Weather History & Observations

Time (EDT) Temp. Dew Point Humidity Pressure Visibility Wind Dir Wind Speed Gust Speed Precip Events Conditions
12:15 AM 60.1 °F 57.2 °F 90% 29.83 in 10.0 mi Calm Calm - N/A   Overcast
12:35 AM 59.9 °F 56.7 °F 89% 29.83 in 10.0 mi Calm Calm - N/A   Overcast
12:55 AM 59.9 °F 56.5 °F 88% 29.84 in 4.0 mi West 6.9 mph - N/A   Heavy Drizzle
1:15 AM 59.9 °F 56.7 °F 89% 29.84 in 7.0 mi Calm Calm - N/A   Light Drizzle
1:35 AM 59.7 °F 56.5 °F 89% 29.84 in 7.0 mi Calm Calm - N/A Rain Light Rain
1:55 AM 59.4 °F 56.3 °F 90% 29.84 in 5.0 mi West 5.8 mph - N/A   Light Drizzle
2:15 AM 59.4 °F 56.3 °F 90% 29.84 in 10.0 mi West 4.6 mph - N/A   Overcast
2:35 AM 59.0 °F 55.9 °F 90% 29.84 in 5.0 mi Calm Calm - N/A Rain Light Rain
2:55 AM 59.4 °F 55.9 °F 88% 29.84 in 10.0 mi Calm Calm - N/A   Overcast
3:15 AM 59.5 °F 55.4 °F 86% 29.84 in 10.0 mi Calm Calm - N/A   Overcast
3:35 AM 59.7 °F 55.2 °F 85% 29.84 in 10.0 mi Calm Calm - N/A   Overcast
3:55 AM 59.4 °F 55.4 °F 87% 29.84 in 10.0 mi Calm Calm - N/A   Overcast
4:15 AM 59.9 °F 54.5 °F 82% 29.85 in 10.0 mi Calm Calm - N/A   Overcast
4:35 AM 59.9 °F 54.0 °F 81% 29.85 in 10.0 mi WSW 3.5 mph - N/A   Overcast
4:55 AM 59.0 °F 54.0 °F 83% 29.85 in 10.0 mi Calm Calm - N/A   Overcast
5:15 AM 58.5 °F 54.1 °F 86% 29.86 in 10.0 mi Calm Calm - N/A   Overcast
5:35 AM 58.5 °F 54.0 °F 85% 29.86 in 10.0 mi Calm Calm - N/A   Overcast
5:55 AM 58.5 °F 53.6 °F 84% 29.87 in 10.0 mi Calm Calm - N/A   Mostly Cloudy
6:15 AM 58.8 °F 52.7 °F 80% 29.87 in 10.0 mi Calm Calm - N/A   Scattered Clouds
6:35 AM 59.0 °F 52.7 °F 80% 29.87 in 10.0 mi Calm Calm - N/A   Mostly Cloudy
6:55 AM 58.6 °F 52.9 °F 81% 29.87 in 10.0 mi Calm Calm - N/A   Mostly Cloudy
7:15 AM 58.3 °F 53.6 °F 84% 29.88 in 10.0 mi Calm Calm - N/A   Scattered Clouds
7:35 AM 60.8 °F 53.8 °F 78% 29.88 in 10.0 mi Calm Calm - N/A   Clear
7:55 AM 61.7 °F 53.6 °F 75% 29.88 in 10.0 mi Calm Calm - N/A   Clear
8:15 AM 62.2 °F 54.5 °F 76% 29.88 in 10.0 mi SSW 4.6 mph - N/A   Clear
8:35 AM 63.5 °F 55.6 °F 75% 29.88 in 10.0 mi South 4.6 mph - N/A   Clear
8:55 AM 63.5 °F 54.5 °F 72% 29.88 in 10.0 mi South 4.6 mph - N/A   Clear
9:15 AM 64.6 °F 55.0 °F 71% 29.89 in 10.0 mi South 5.8 mph - N/A   Clear
9:35 AM 65.8 °F 54.7 °F 67% 29.88 in 10.0 mi Calm Calm - N/A   Clear
9:55 AM 66.7 °F 50.9 °F 57% 29.89 in 10.0 mi WSW 5.8 mph - N/A   Clear
10:15 AM 67.5 °F 48.9 °F 51% 29.88 in 10.0 mi West 5.8 mph - N/A   Clear
10:35 AM 68.5 °F 50.4 °F 52% 29.89 in 10.0 mi WSW 6.9 mph - N/A   Clear
10:55 AM 69.4 °F 50.4 °F 51% 29.88 in 10.0 mi SW 5.8 mph - N/A   Clear
11:15 AM 70.7 °F 49.8 °F 48% 29.87 in 10.0 mi SW 10.4 mph 16.1 mph N/A   Clear
11:35 AM 71.4 °F 49.3 °F 45% 29.89 in 10.0 mi WNW 12.7 mph - N/A   Scattered Clouds
11:55 AM 67.8 °F 47.3 °F 48% 29.89 in 10.0 mi West 12.7 mph 18.4 mph N/A   Scattered Clouds
12:15 PM 66.7 °F 49.3 °F 53% 29.90 in 10.0 mi West 6.9 mph - N/A   Overcast
12:35 PM 65.7 °F 48.4 °F 54% 29.90 in 10.0 mi West 6.9 mph - N/A   Overcast
12:55 PM 65.8 °F 48.6 °F 54% 29.90 in 10.0 mi WSW 8.1 mph 16.1 mph N/A   Overcast
1:15 PM 66.9 °F 50.5 °F 56% 29.90 in 10.0 mi West 9.2 mph - N/A   Mostly Cloudy
1:35 PM 67.1 °F 51.1 °F 56% 29.91 in 10.0 mi West 9.2 mph - N/A   Mostly Cloudy
1:55 PM 66.7 °F 52.7 °F 61% 29.91 in 10.0 mi West 6.9 mph - N/A   Overcast
2:15 PM 67.1 °F 52.5 °F 59% 29.89 in 10.0 mi West 10.4 mph 17.3 mph N/A   Overcast
2:35 PM 66.7 °F 52.9 °F 61% 29.90 in 10.0 mi West 9.2 mph - N/A   Overcast
2:55 PM 66.7 °F 52.9 °F 61% 29.90 in 10.0 mi West 6.9 mph - N/A   Overcast
3:15 PM 67.3 °F 52.7 °F 59% 29.90 in 10.0 mi West 6.9 mph - N/A   Overcast
3:35 PM 66.0 °F 52.9 °F 63% 29.90 in 10.0 mi West 8.1 mph - N/A   Overcast
3:55 PM 66.7 °F 54.0 °F 63% 29.88 in 10.0 mi WSW 4.6 mph - N/A   Overcast
4:15 PM 66.7 °F 54.3 °F 64% 29.90 in 10.0 mi WNW 3.5 mph - N/A   Overcast
4:35 PM 65.3 °F 54.5 °F 68% 29.90 in 10.0 mi WNW 3.5 mph - N/A   Overcast
4:55 PM 64.4 °F 54.3 °F 70% 29.91 in 10.0 mi WNW 6.9 mph - N/A   Overcast
5:15 PM 63.9 °F 54.3 °F 71% 29.91 in 10.0 mi WNW 5.8 mph - N/A   Overcast
5:35 PM 63.5 °F 53.6 °F 70% 29.91 in 10.0 mi WNW 5.8 mph - N/A   Overcast
5:55 PM 63.5 °F 54.5 °F 72% 29.92 in 10.0 mi WNW 5.8 mph - N/A   Overcast
6:15 PM 62.6 °F 54.0 °F 73% 29.92 in 10.0 mi NW 4.6 mph - N/A   Overcast
6:35 PM 61.7 °F 54.0 °F 76% 29.92 in 10.0 mi Calm Calm - N/A Rain Light Rain
6:55 PM 61.7 °F 54.9 °F 78% 29.92 in 10.0 mi Calm Calm - N/A   Overcast
7:15 PM 61.7 °F 55.4 °F 80% 29.93 in 10.0 mi Calm Calm - N/A   Overcast
7:35 PM 61.7 °F 55.0 °F 79% 29.92 in 10.0 mi Calm Calm - N/A   Overcast
7:55 PM 61.3 °F 54.1 °F 77% 29.92 in 10.0 mi West 3.5 mph - N/A   Overcast
8:15 PM 60.8 °F 54.0 °F 78% 29.93 in 10.0 mi Calm Calm - N/A   Overcast
8:35 PM 60.4 °F 54.5 °F 81% 29.93 in 10.0 mi West 3.5 mph - N/A   Overcast
8:55 PM 60.8 °F 54.0 °F 78% 29.94 in 10.0 mi West 3.5 mph - N/A   Drizzle
9:15 PM 59.9 °F 54.3 °F 82% 29.94 in 10.0 mi West 3.5 mph - N/A Rain Rain
9:35 PM 59.4 °F 54.5 °F 84% 29.95 in 7.0 mi WSW 4.6 mph - N/A   Drizzle
9:55 PM 59.0 °F 54.0 °F 83% 29.94 in 10.0 mi West 4.6 mph - N/A Rain Light Rain
10:15 PM 58.5 °F 54.5 °F 87% 29.94 in 10.0 mi West 4.6 mph - N/A   Light Drizzle
10:35 PM 58.5 °F 54.5 °F 87% 29.95 in 7.0 mi West 3.5 mph - N/A Rain Light Rain
10:55 PM 58.1 °F 54.5 °F 88% 29.95 in 5.0 mi WSW 3.5 mph - N/A Rain Rain
11:15 PM 57.9 °F 54.7 °F 89% 29.94 in 5.0 mi WSW 3.5 mph - N/A Rain Light Rain
11:35 PM 57.7 °F 54.7 °F 90% 29.93 in 10.0 mi Calm Calm - N/A   Overcast
11:55 PM 57.7 °F 54.3 °F 88% 29.93 in 10.0 mi Calm Calm - N/A   Overcast